Location: Radford
(37.1320°N, 80.5770°W)
Time: 04:24:40
(UTC-04:00)

Daily predictions for brighter satellites

Satellite Brightness Start Highest point End
(mag) Time Altitude Azimuth Time Altitude Azimuth Time Altitude Azimuth
Cosmos 2227 Rocket 4.4 03:39:48 20° NE 03:39:48 20° NE 03:41:50 10° NE
Cosmos 2344 4.1 03:47:24 55° NNE 03:47:24 55° NNE 03:53:49 10° NNE
Cosmos 2297 Rocket 4.3 03:47:53 22° ENE 03:47:53 22° ENE 03:50:36 10° NE
Okean O Rocket 4.3 04:05:12 10° NE 04:06:39 16° ENE 04:06:39 16° ENE
NOSS 3-4 (A) 4.1 04:22:27 49° NNE 04:22:27 49° NNE 04:27:10 10° NNE
NOSS 3-4 (C) 4.1 04:22:33 50° NNE 04:22:33 50° NNE 04:27:16 10° NNE
ADEOS II 4.4 04:37:49 10° NE 04:41:44 21° E 04:45:37 10° SE
BREEZE-M DEB (TANK) 4.4 04:47:30 37° NE 04:47:30 37° NE 04:49:10 10° NE
ATLAS 5 CENTAUR R/B 2.3 04:48:48 88° NNE 04:48:51 88° ENE 04:55:24 10° SSE
Cosmos 2237 Rocket 4.4 04:56:10 12° SSE 04:56:10 12° SSE 04:56:31 10° SSE
CZ-4B R/B 3.7 04:46:30 10° NNE 04:51:50 55° E 04:53:41 38° SSE
Meteor 1-19 Rocket 4.2 04:52:55 75° N 04:52:55 75° N 04:58:02 10° N
Cosmos 1727 Rocket 3.9 04:55:17 70° NW 04:55:17 70° NW 05:01:11 10° N
CZ-4B R/B 3.6 04:54:47 10° NNE 04:59:03 58° E 04:59:03 58° E
Meteor 2-4 Rocket 3.9 04:58:04 48° SSE 04:59:45 75° E 05:05:40 10° NNE
Cosmos 2298 Rocket 4.3 05:01:56 53° SSE 05:02:59 66° ESE 05:08:15 10° NNE
Cosmos 292 Rocket 4.2 04:59:48 10° N 05:04:38 63° ENE 05:09:26 10° SSE
FALCON 9 R/B 3.6 05:02:41 31° S 05:05:14 43° SE 05:21:45 10° ENE
Cosmos 1459 Rocket 4.5 05:00:40 10° N 05:06:58 61° E 05:13:10 10° SSE
CZ-2D R/B 4.0 05:04:38 10° NNW 05:06:12 17° NNW 05:06:12 17° NNW
Meteor 1-23 Rocket 4.2 05:07:12 43° S 05:09:10 82° E 05:14:53 10° N
Okean 2 3.8 05:09:56 60° NE 05:09:56 60° NE 05:13:30 10° NNE
Cosmos 2058 Rocket 3.9 05:05:19 10° N 05:09:34 48° E 05:13:47 10° SSE
NOSS 3-2 (A) 4.0 05:08:53 44° WNW 05:10:50 54° WSW 05:18:40 10° S
SL-16 R/B 2.5 05:06:26 10° NNW 05:12:06 65° ENE 05:17:42 10° SSE
Lacrosse 5 3.1 05:15:13 27° NNW 05:15:13 27° NNW 05:19:02 10° NNE
Meteor 2-9 Rocket 4.4 05:09:43 10° N 05:15:25 75° E 05:21:13 10° SSE
Okean-O 4.1 05:11:34 10° NNE 05:15:40 36° E 05:19:45 10° SSE
Thor Agena Rocket 4.2 05:10:45 10° SSE 05:15:53 56° ENE 05:21:04 10° N
Cosmos 2150 Rocket 4.0 05:15:10 45° S 05:16:45 77° ESE 05:21:54 10° NNE
Cosmos 1025 Rocket 4.5 05:19:21 25° NNW 05:19:21 25° NNW 05:21:23 10° N
Aureole 2 Rocket 4.0 05:15:34 10° N 05:18:38 32° ENE 05:21:27 10° SE
Cosmos 2227 Rocket 3.2 05:21:39 30° NW 05:21:39 30° NW 05:25:50 10° N
IRS-1C Rocket 4.1 05:18:46 10° N 05:23:57 58° WNW 05:24:27 55° W
USA 215 3.5 05:21:17 10° SSE 05:27:28 45° SW 05:28:54 39° W
Resurs 1-4 Rocket 4.1 05:24:05 10° NNW 05:25:18 14° NW 05:25:18 14° NW
Cosmos 2297 Rocket 2.8 05:29:44 37° WNW 05:29:44 37° WNW 05:34:56 10° N
Cosmos 1626 Rocket 4.5 05:31:02 10° SSE 05:35:14 48° E 05:39:25 10° NNE
ADEOS Rocket 3.1 05:29:45 10° N 05:36:48 82° WNW 05:43:04 10° SSW
OAO 2 Rocket 3.9 05:36:03 35° SW 05:37:48 50° SSE 05:42:56 10° E
Cosmos 1346 Rocket 4.0 05:39:37 28° NW 05:39:37 28° NW 05:42:00 10° N
CENTAUR R/B 3.5 05:33:28 10° NNW 05:41:21 67° NE 05:49:39 10° SE
Cosmos 1898 Rocket 3.6 05:39:58 36° SW 05:41:54 56° WNW 05:47:08 10° N
Cosmos 2098 Rocket 3.5 05:38:00 10° N 05:42:10 68° E 05:47:30 10° SSE
RESURS DK-1 4.4 05:44:50 15° NNW 05:44:50 15° NNW 05:46:20 10° NNW
Okean O Rocket 2.7 05:41:08 10° N 05:44:06 27° NW 05:44:06 27° NW
NOSS 2-2 (D) 3.5 05:43:17 31° SSW 05:45:12 79° ESE 05:49:44 10° NE
OPS 6432 4.4 05:46:15 54° NW 05:46:15 54° NW 05:49:14 10° NNE
DELTA 2 R/B (1) 3.6 05:44:29 35° W 05:46:53 74° N 05:52:28 10° ENE
Delta 2 Rocket 3.4 05:47:01 45° SW 05:47:32 48° SSW 05:51:03 10° ESE
NOSS 3-2 (C) 4.5 05:43:04 10° NW 05:49:59 37° WSW 05:57:15 10° S
Cosmos 1726 Rocket 4.0 05:47:04 10° NNW 05:51:07 37° W 05:51:40 36° WSW
Cosmos 1937 Rocket 3.5 05:49:09 20° SSW 05:52:42 63° WNW 05:57:57 10° NNE
Cosmos 1602 Rocket 3.5 05:54:48 10° S 05:59:14 87° W 06:03:41 10° N
Cosmos 1603 4.3 05:54:02 10° NNW 05:59:42 59° ENE 06:05:17 10° SE
NOSS 2-2 (C) 3.4 05:58:15 25° SW 06:00:34 70° NW 06:05:10 10° NNE
NOSS 2-2 (E) 3.6 05:59:44 26° SW 06:01:56 60° NW 06:06:36 10° NNE
Cosmos 972 Rocket 4.3 05:58:15 10° SSW 06:03:40 88° E 06:09:49 10° NNE
Cosmos 2263 Rocket 4.4 05:59:54 10° SSE 06:04:27 26° ESE 06:09:01 10° NE
OE (NEXTSAT) 4.3 06:05:14 26° WNW 06:07:07 72° SSW 06:10:44 10° SE
PSLV R/B 3.9 06:03:08 10° N 06:07:12 42° WNW 06:10:51 12° SW
Cosmos 2100 Rocket 4.4 06:02:26 10° NNW 06:08:09 39° W 06:13:56 10° SSW
Cosmos 1802 Rocket 4.1 06:05:06 10° NNW 06:10:57 47° W 06:16:45 10° SSW
Cosmos 2061 Rocket 4.4 06:05:13 10° NNW 06:11:06 42° W 06:17:01 10° SSW
Genesis I 3.2 06:08:12 17° SW 06:11:09 66° WNW 06:15:08 10° NNE
Cosmos 2228 3.5 06:11:52 10° NNW 06:15:55 38° W 06:19:56 10° SSW
Meteor 1-31 Rocket 2.7 06:12:58 10° N 06:16:53 76° WNW 06:20:48 10° SSW
Cosmos 1725 Rocket 3.9 06:13:23 10° N 06:19:40 75° W 06:25:52 10° S
ADEOS II 2.5 06:16:39 10° N 06:21:35 43° WNW 06:26:31 10° SW
CZ-4B R/B 3.6 06:18:39 10° N 06:22:31 69° WNW 06:26:12 10° SSW
Cosmos 1515 3.9 06:19:20 10° SSW 06:23:01 46° W 06:26:43 10° N
BREEZE-M DEB (TANK) 2.7 06:22:38 10° NW 06:25:11 53° NE 06:29:25 10° ESE
Tiangong 1 2.5 06:24:12 12° NW 06:26:37 30° N 06:29:21 10° ENE
Cosmos 1812 Rocket 3.5 06:22:15 10° N 06:26:42 75° W 06:31:09 10° S
ATLAS 5 CENTAUR R/B 3.9 06:30:34 12° W 06:32:58 14° WSW 06:36:15 10° SW
SL-24 R/B 3.8 06:29:53 10° N 06:34:04 88° WNW 06:37:50 10° SSW
Cosmos 1340 2.6 06:30:28 10° SSW 06:34:14 73° W 06:38:02 10° N
SeaSat 1 4.2 06:41:22 10° ESE 06:45:48 35° ENE 06:50:16 10° N
Cosmos 1842 4.3 06:42:55 10° S 06:46:41 51° E 06:50:28 10° NNE
MOS 1 Rocket 4.0 06:42:26 10° N 06:46:55 37° WNW 06:51:37 10° SW
Radarsat Rocket 4.1 06:42:25 10° NNE 06:49:01 72° WNW 06:54:57 10° SSW
Okean-O 4.1 06:48:48 10° NNW 06:51:52 19° WNW 06:54:56 10° WSW
Intercosmos 25 Rocket 3.9 06:49:58 10° NNW 06:53:45 55° W 06:59:33 10° S
SL-16 R/B 3.7 06:52:27 10° WNW 06:55:33 15° W 06:58:39 10° SW
COSMO-SKYMED 1 2.6 06:51:38 10° S 06:55:57 66° W 07:00:16 10° NNW
